Regional Weather Roundup
Issued by NWS Midland/Odessa, TX

Skip options and go directly to product.
Home | Oldest Version | Next Version | Current Version | All | Text Only | Save Text | Print | Product List | Glossary On

Skip product version selection by date and time.   
851
ASUS44 KMAF 302101
RWRMAF
MIDLAND AREA WEATHER ROUNDUP
NATIONAL WEATHER SERVICE MIDLAND TX
400 PM CDT SAT APR 30 2016

...IN SOUTHWEST TEXAS AND SOUTHEAST NEW MEXICO...

CITY           SKY/WX    TMP DP  RH WIND       PRES   REMARKS
ALPINE         SUNNY     78  15   9 S17G24    29.89F
ANDREWS        PTSUNNY   77  34  21 SW10      29.80F
ARTESIA        SUNNY     77  28  16 E8G16     29.74F
BIG SPRING     SUNNY     75  40  28 NW9       29.83F
CARLSBAD       SUNNY     80  24  12 W13G24    29.74F
DRYDEN           N/A     88  20   8 W9G23     29.71F
FORT STOCKTON  SUNNY     82  22  11 MISG      29.76F
GUAD PASS      NOT AVBL
HOBBS          MOSUNNY   75  25  15 SW9G17    29.80F
MARFA          SUNNY     76  17  11 S10G17    29.86F
MIDLAND AIRPK  SUNNY     79  33  19 CALM      29.80F
MIDLAND INTL   SUNNY     80  34  19 VRB5      29.78F
ODESSA         SUNNY     79  29  16 SW10G17   29.79F
PECOS          SUNNY     82  21  10 W9        29.75F
PRESIDIO       FAIR      85  16   7 E10G16    29.75F
SEMINOLE       MOSUNNY   74  36  24 CALM      29.80F
SNYDER           N/A     71  45  39 CALM      29.83S
WINK           SUNNY     82  26  13 W14G21    29.74F
$$
...OTHER STATIONS IN TEXAS...

CITY           SKY/WX    TMP DP  RH WIND       PRES   REMARKS
ABILENE        SUNNY     74  50  42 N5        29.80F
AMARILLO       CLOUDY    57  38  48 NW8       29.89S
AUSTIN         MOSUNNY   81  66  60 CALM      29.72F
BROWNSVILLE    SUNNY     88  76  67 NE9       29.64F
CORPUS CHRISTI PTSUNNY   93  71  48 E9        29.63F HX 100
DALLAS FTW     MOSUNNY   74  59  59 VRB5      29.76F
DEL RIO        SUNNY     89  32  13 VRB6      29.69F
EL PASO        MOSUNNY   76  18  11 SW14G22   29.78F
HOUSTON INT    PTSUNNY   84  65  52 E6        29.68F
LUBBOCK        PTSUNNY   72  36  26 CALM      29.82F
SAN ANGELO     SUNNY     79  48  33 NE8       29.79F
SAN ANTONIO    MOSUNNY   85  60  42 NE9       29.72F
WACO           SUNNY     77  62  59 CALM      29.75F
WICHITA FALLS  NOT AVBL
$$
...OTHER LOCATIONS IN NEW MEXICO...

CITY           SKY/WX    TMP DP  RH WIND       PRES   REMARKS
ALAMAGORDO     SUNNY     72  25  17 SW9G17    29.79F
ALBUQUERQUE    PTSUNNY   62  34  35 N14       29.83F
CANNON AFB     NOT AVBL
CLOVIS         PTSUNNY   63  39  42 NE10      29.85S
HOLLOMAN AFB   MOSUNNY   72  26  17 VRB3      29.77F
ROSWELL        MOSUNNY   76  26  15 SE17      29.75F
RUIDOSO          N/A     57  19  23 W6        29.90S
SANTA FE       PTSUNNY   57  30  35 N13G20    29.85S
TRUTH OR CONSE MOSUNNY   70  24  17 S14G23    29.77F
TUCUMCARI      MOSUNNY   63  38  39 MISG      29.84F
$$

USA.gov is the U.S. government's official web portal to all federal, state and local government web resources and services.